Location: Unspecified
(0.0000°N, 0.0000°E)
Time: 18:39:33
(UTC+01:00)

SWIFT - Visible Passes

Search period start: 03 December 2016 00:00
Search period end: 13 December 2016 00:00
Orbit: 548 x 564 km, 20.6° (Epoch: 03 December)

Date Brightness Start Highest point End Pass type
(mag) Time Alt. Az. Time Alt. Az. Time Alt. Az.
04 Dec 4.9 20:38:11 10° S 20:39:28 11° SSE 20:39:42 11° SSE visible
05 Dec 4.6 20:32:10 10° SSW 20:34:33 15° SSE 20:34:53 14° SSE visible
06 Dec 4.2 20:26:33 10° SSW 20:29:36 19° SSE 20:30:04 19° SSE visible
07 Dec 3.8 20:21:06 10° SW 20:24:37 25° SSE 20:25:17 24° SE visible
08 Dec 3.3 20:15:45 10° SW 20:19:37 35° SSE 20:20:30 31° SE visible
09 Dec 2.8 20:10:31 10° SW 20:14:36 49° SSE 20:15:45 37° ESE visible
10 Dec 4.4 06:27:02 10° NNW 06:29:55 17° NNE 06:32:49 10° ENE visible
10 Dec 2.3 20:05:22 10° WSW 20:09:34 72° SSE 20:11:00 39° E visible
11 Dec 4.0 06:21:32 10° NNW 06:24:56 23° NNE 06:28:22 10° ENE visible
11 Dec 2.2 20:00:18 10° WSW 20:04:31 79° NNW 20:06:17 34° ENE visible
12 Dec 3.6 06:16:08 10° NW 06:19:56 31° NNE 06:23:45 10° E visible
12 Dec 2.7 19:55:21 10° W 19:59:29 54° NNW 20:01:33 26° NE visible
